Wetbulb
70.78 73.20 76.69 75.79 75.63 75.76 76.21 76.38 76.88 76.51 76.92 77.06 76.68 76.40 76.50 76.46 76.30 76.27 76.21 76.33 76.03 76.26 76.31 76.15 75.95 75.76 76.01 76.72 76.67 75.51 75.23 75.42 76.11 76.44 75.90 76.04 75.34 76.16 77.38 77.91 77.25 75.56 77.24
71.92 74.52 77.25 77.06 76.42 76.38 76.51 76.67 76.41 76.77 76.58 77.31 77.20 77.07 76.44 76.94 76.70 76.75 76.74 76.53 76.37 76.20 75.98 75.90 75.18 75.59 76.14 76.08 76.38 76.63 75.64 74.93 75.45 75.84 76.26 75.47 75.20 75.68 76.80 77.69 77.39 76.27 77.52
72.64 74.76 75.30 77.53 76.74 76.78 77.01 76.52 76.44 76.84 76.52 77.15 77.12 77.04 76.79 76.98 76.84 76.62 76.68 76.77 76.41 76.27 76.36 76.36 75.92 75.18 75.23 75.65 75.37 76.00 76.01 75.98 75.80 76.12 75.45 72.60 72.94 75.73 75.93 76.06 76.87 77.36 77.34
73.35 73.90 75.01 77.56 77.64 76.46 76.78 77.08 77.09 76.84 76.75 76.91 76.50 76.45 76.75 76.76 76.22 75.79 75.62 75.68 75.81 75.70 75.48 75.68 75.81 76.28 75.59 74.84 74.62 75.29 75.39 74.95 75.06 76.08 71.77 71.81 71.57 76.12 76.56 76.34 76.78 77.22 77.41
72.55 73.56 74.64 77.51 76.95 77.08 77.00 77.45 76.67 76.87 76.28 75.53 75.18 75.07 74.84 75.07 75.29 75.26 74.95 74.59 74.95 74.79 74.42 74.78 75.79 76.39 76.20 76.06 75.78 75.45 74.62 75.09 75.20 74.65 69.21 69.58 68.53 75.62 76.47 76.28 77.18 77.01 77.16
73.24 73.81 76.71 77.07 77.12 77.08 77.16 76.29 75.69 75.75 76.38 76.13 75.92 75.48 75.20 75.04 74.90 74.65 74.73 74.87 74.73 74.70 75.15 75.56 75.70 75.70 76.01 76.01 76.90 76.73 76.26 75.37 74.67 72.22 72.22 71.93 72.49 76.83 76.92 76.34 76.09 76.98 77.45
72.90 74.30 75.48 77.92 76.84 76.11 76.17 76.44 76.65 76.47 75.80 75.48 74.87 74.62 74.45 74.45 74.65 74.84 75.04 75.40 75.59 76.08 76.36 76.33 76.12 76.07 75.98 76.23 76.67 77.05 76.69 76.08 74.42 74.00 73.56 73.18 72.80 76.27 77.24 77.77 77.25 76.61 77.07
72.15 73.62 74.27 77.42 76.73 77.00 76.87 76.79 76.02 75.54 75.15 74.93 74.78 74.84 75.32 75.54 75.90 75.84 75.87 76.12 76.18 76.31 76.47 76.37 76.15 76.23 76.29 76.45 77.34 77.75 77.03 76.87 75.29 74.33 74.70 73.77 74.46 76.87 77.64 77.56 77.80 77.45 76.36
73.42 73.53 74.34 74.64 75.38 77.37 76.84 76.00 75.65 75.43 75.20 75.31 75.37 76.39 76.94 77.00 77.06 77.03 77.40 77.23 76.42 76.75 77.03 76.73 76.62 76.81 77.08 77.40 77.53 77.77 77.56 77.13 74.44 74.46 75.02 74.59 75.95 76.97 77.14 77.52 77.72 77.90 77.51
72.32 73.45 73.15 72.90 73.47 73.52 73.27 76.76 76.65 76.44 75.98 75.79 76.40 77.15 77.86 77.48 77.65 78.75 78.49 78.06 77.49 77.66 77.23 77.81 77.69 78.54 78.18 78.50 78.42 78.12 77.47 77.26 76.02 75.05 74.57 74.55 76.52 77.49 77.00 76.49 77.03 77.23 77.35
71.35 71.70 71.90 71.97 71.80 71.73 71.66 73.95 77.07 76.40 76.43 76.93 77.20 78.40 78.02 75.81 74.57 75.96 77.73 78.22 78.47 78.27 77.77 78.69 78.68 79.02 78.79 79.19 79.36 79.14 78.15 75.80 70.92 74.09 73.42 76.43 76.89 77.81 77.51 77.66 77.42 77.45 77.86
69.39 70.11 70.83 71.45 71.29 72.12 73.10 71.24 72.61 73.44 73.69 74.16 74.69 75.47 75.96 75.05 74.87 75.75 72.26 76.97 76.78 77.04 78.98 78.60 76.85 78.78 78.75 74.11 74.14 76.30 72.92 76.64 74.33 74.35 73.44 76.51 77.35 77.61 76.91 76.27 75.44 75.58 76.73
67.79 70.45 70.54 70.79 72.06 73.06 72.37 71.59 72.89 74.86 74.53 75.60 75.73 70.68 73.27 75.84 75.72 72.28 72.19 75.12 71.12 71.93 75.45 76.72 74.66 75.32 75.45 74.21 74.44 73.49 72.69 74.78 74.47 74.74 74.69 77.55 77.22 76.36 74.01 73.62 73.23 73.39 75.04
67.11 67.63 70.53 70.18 73.38 74.15 72.15 73.28 73.36 73.53 73.12 73.92 76.14 72.83 73.22 75.38 74.33 72.50 73.56 75.22 72.26 73.72 75.19 75.63 74.69 74.32 74.87 75.30 74.35 74.16 74.43 73.92 73.93 73.81 75.31 77.20 76.26 75.77 74.61 74.60 74.66 74.04 73.86
66.28 68.69 70.49 71.69 72.63 73.36 73.97 74.18 73.40 74.12 73.17 74.08 75.13 76.35 76.04 74.18 70.00 73.39 74.96 74.13 74.51 75.88 74.66 73.62 74.58 74.34 74.73 74.87 75.52 74.93 74.90 73.40 72.94 73.22 73.50 76.87 76.00 75.79 75.16 74.79 74.76 74.64 74.48
68.13 70.45 71.46 72.09 73.37 73.54 74.97 74.37 74.22 74.07 73.53 74.29 74.59 75.19 75.00 75.01 73.16 74.28 74.74 74.89 73.94 75.61 73.57 74.47 72.90 72.45 74.67 73.54 74.40 74.73 74.10 72.91 71.30 71.75 72.69 73.65 75.84 75.56 75.45 74.33 74.06 74.26 74.19
67.99 70.65 71.05 72.21 73.49 73.96 75.48 74.82 74.15 72.93 72.72 74.17 73.84 75.05 74.75 74.23 75.20 75.21 75.37 75.23 74.41 76.27 76.01 76.45 73.30 73.62 71.72 71.79 70.50 73.12 72.83 71.37 70.86 71.49 71.86 71.59 73.34 75.56 75.25 74.23 73.07 72.61 72.52
68.26 69.09 70.96 73.77 73.41 74.26 74.60 75.92 74.36 74.09 72.97 75.82 74.54 75.09 75.93 75.95 75.32 75.02 75.12 75.37 76.88 74.56 73.76 73.34 72.97 71.68 70.63 69.22 68.00 68.05 70.75 72.10 71.26 71.04 71.17 70.99 71.15 70.04 73.85 73.87 72.51 70.54 70.62
69.00 69.20 69.09 72.06 73.16 74.16 74.51 76.23 74.86 73.81 73.40 74.55 75.76 75.77 74.38 75.54 75.53 72.58 73.79 73.99 76.05 73.45 72.89 73.71 73.61 72.83 68.69 68.22 68.80 68.24 69.39 71.27 71.81 72.06 69.82 69.29 68.40 66.68 68.45 73.72 70.92 69.74 70.40
70.61 69.41 69.55 72.97 73.12 73.56 74.73 74.32 75.82 73.95 73.49 75.00 75.09 75.43 73.55 74.02 74.40 70.79 73.82 71.80 75.40 75.13 75.34 74.47 72.97 73.77 69.29 68.19 70.36 70.54 69.29 68.45 72.06 70.70 69.49 69.73 67.30 67.36 68.20 69.33 68.81 68.79 70.15
70.78 69.41 69.67 72.73 73.89 73.63 73.89 72.75 73.19 71.61 71.75 74.69 75.57 74.62 74.48 72.17 76.23 74.68 72.90 69.33 67.48 74.84 74.74 74.62 74.16 72.01 69.50 68.72 65.89 65.80 68.06 67.69 68.59 70.84 70.37 69.98 68.99 68.39 68.54 69.35 68.68 68.79 68.38
69.71 70.29 71.24 72.46 73.73 73.57 73.70 74.43 74.56 73.49 73.47 74.83 73.52 73.32 75.22 74.30 75.85 73.33 69.03 66.01 71.18 75.19 73.84 74.24 74.09 70.95 71.16 69.11 64.61 64.26 61.88 65.41 64.21 67.05 70.52 70.92 69.04 69.15 69.61 69.30 68.65 67.57 66.67
69.91 71.07 71.87 72.50 74.30 73.19 73.42 73.81 73.37 74.22 74.43 72.97 72.27 73.82 73.39 74.77 75.05 75.72 74.74 71.19 72.33 75.47 73.95 74.37 73.52 72.17 68.71 70.47 67.28 63.70 59.62 58.57 60.76 64.05 63.57 64.84 65.97 66.96 66.94 66.94 66.85 65.47 64.81
70.42 72.26 72.64 72.93 74.03 74.19 73.29 72.95 72.38 71.00 70.80 72.23 73.29 74.73 73.57 75.31 74.46 75.33 74.86 74.79 75.67 75.66 75.19 74.59 75.39 74.14 70.80 68.27 68.72 67.90 65.07 63.50 59.66 58.17 63.41 63.86 65.94 65.10 64.37 66.09 65.69 65.18 65.10
70.77 71.60 72.61 72.34 72.45 72.81 72.81 73.57 72.26 70.33 70.59 71.32 72.98 74.48 74.36 75.15 75.09 75.16 75.84 75.44 76.95 76.85 75.69 75.37 74.37 73.74 73.70 71.73 70.58 68.90 67.77 66.75 63.87 60.12 60.09 60.75 63.26 63.09 63.32 63.68 63.32 63.55 64.38
70.70 71.00 72.09 72.30 72.05 73.59 73.26 73.20 72.33 72.62 72.54 69.60 71.32 72.25 72.98 72.52 73.54 75.60 76.28 75.94 75.28 76.39 75.23 75.21 75.26 74.35 73.24 71.89 71.68 71.25 66.28 64.70 64.23 60.81 60.20 59.85 60.60 60.51 61.74 62.34 62.31 62.35 62.52
MSLP
1013.98 1013.97 1014.16 1014.31 1014.38 1014.53 1014.57 1014.62 1014.68 1014.74 1014.66 1014.65 1014.78 1014.86 1014.93 1015.01 1015.01 1015.18 1015.32 1015.40 1015.55 1015.70 1015.70 1015.72 1015.76 1015.78 1015.85 1016.00 1016.15 1016.37 1016.52 1016.69 1016.81 1016.88 1017.09 1017.15 1017.31 1017.30 1017.08 1017.00 1017.25 1017.42 1017.47
1013.37 1013.76 1014.10 1014.27 1014.45 1014.48 1014.58 1014.71 1014.80 1014.89 1014.85 1014.81 1014.81 1015.01 1015.19 1015.19 1015.18 1015.30 1015.38 1015.42 1015.55 1015.65 1015.66 1015.63 1015.64 1015.77 1016.01 1016.07 1016.17 1016.29 1016.54 1016.84 1016.92 1016.89 1016.92 1017.15 1017.20 1017.24 1017.17 1017.02 1017.21 1017.33 1017.31
1013.17 1013.66 1014.11 1014.28 1014.50 1014.58 1014.63 1014.83 1014.90 1014.97 1014.96 1014.94 1014.99 1015.16 1015.36 1015.34 1015.28 1015.41 1015.45 1015.48 1015.53 1015.52 1015.49 1015.50 1015.65 1015.86 1016.06 1016.08 1016.24 1016.27 1016.58 1016.82 1016.81 1016.71 1016.71 1016.95 1017.24 1017.34 1017.32 1017.24 1017.24 1017.35 1017.45
1013.04 1013.68 1014.12 1014.41 1014.61 1014.63 1014.83 1014.92 1014.93 1014.97 1015.08 1015.14 1015.22 1015.33 1015.44 1015.45 1015.51 1015.59 1015.68 1015.76 1015.75 1015.76 1015.79 1015.75 1015.83 1015.92 1015.98 1016.13 1016.30 1016.46 1016.75 1016.95 1016.90 1016.81 1016.50 1016.85 1017.29 1017.34 1017.47 1017.45 1017.33 1017.39 1017.46
1013.01 1013.64 1014.19 1014.45 1014.62 1014.61 1014.81 1014.94 1015.01 1015.13 1015.32 1015.31 1015.33 1015.40 1015.60 1015.71 1015.75 1015.78 1015.81 1015.90 1016.05 1016.21 1016.18 1015.96 1015.86 1016.00 1016.06 1016.12 1016.20 1016.30 1016.64 1016.87 1016.90 1016.86 1017.08 1017.25 1017.31 1017.26 1017.42 1017.47 1017.47 1017.50 1017.64
1013.40 1013.98 1014.24 1014.42 1014.57 1014.73 1014.94 1015.10 1015.21 1015.28 1015.33 1015.36 1015.40 1015.59 1015.72 1015.77 1015.78 1015.82 1015.88 1015.99 1016.10 1016.05 1016.01 1015.99 1016.09 1016.20 1016.16 1016.14 1016.27 1016.26 1016.48 1016.85 1016.99 1017.08 1017.26 1017.43 1017.58 1017.20 1017.24 1017.33 1017.39 1017.53 1017.65
1013.63 1014.14 1014.35 1014.55 1014.72 1014.88 1015.12 1015.22 1015.26 1015.30 1015.40 1015.46 1015.58 1015.72 1015.82 1015.78 1015.75 1015.72 1015.79 1015.86 1015.82 1015.84 1015.94 1015.92 1015.85 1015.93 1016.11 1016.12 1016.26 1016.33 1016.58 1016.52 1016.58 1016.66 1016.80 1016.73 1017.16 1017.22 1017.15 1017.28 1017.43 1017.62 1017.70
1013.39 1014.08 1014.36 1014.64 1014.81 1014.94 1015.12 1015.20 1015.22 1015.29 1015.42 1015.52 1015.71 1015.82 1015.74 1015.61 1015.56 1015.55 1015.72 1015.85 1015.81 1015.82 1015.82 1015.83 1015.90 1015.88 1015.92 1016.03 1016.11 1016.10 1016.18 1015.91 1015.65 1015.89 1016.17 1016.09 1016.53 1016.45 1016.52 1016.73 1017.03 1017.37 1017.58
1013.29 1013.93 1014.57 1014.71 1014.78 1014.90 1015.06 1015.08 1015.12 1015.27 1015.42 1015.61 1015.65 1015.53 1015.59 1015.58 1015.29 1015.09 1015.22 1015.29 1015.40 1015.56 1015.66 1015.59 1015.53 1015.59 1015.63 1015.82 1015.99 1015.93 1015.69 1015.71 1015.80 1015.94 1015.77 1015.92 1016.41 1016.40 1016.48 1016.68 1016.77 1016.98 1017.26
1013.34 1013.77 1014.33 1014.58 1014.73 1014.88 1014.95 1014.84 1015.03 1015.23 1015.52 1015.56 1015.39 1015.47 1015.47 1015.17 1015.10 1015.22 1015.19 1014.95 1015.01 1015.20 1015.27 1015.41 1015.22 1015.22 1015.62 1015.40 1015.20 1015.28 1015.68 1015.66 1015.75 1015.45 1015.22 1015.74 1016.16 1016.35 1016.56 1016.75 1016.62 1016.69 1016.90
1013.19 1013.67 1013.92 1014.30 1014.58 1014.74 1014.75 1014.82 1015.12 1015.34 1015.39 1015.17 1014.99 1015.17 1014.95 1014.77 1015.19 1015.01 1014.88 1014.95 1014.95 1014.99 1015.25 1015.13 1015.18 1014.94 1014.93 1015.09 1014.85 1014.97 1015.39 1015.45 1015.74 1015.70 1015.62 1015.47 1015.75 1015.88 1015.92 1016.07 1016.16 1016.33 1016.42
1013.07 1013.54 1013.61 1013.88 1014.33 1014.52 1014.36 1014.55 1015.00 1015.24 1015.09 1014.82 1014.90 1015.07 1014.56 1014.18 1014.31 1013.68 1014.50 1014.36 1014.19 1014.67 1014.90 1014.38 1014.74 1014.73 1014.80 1014.89 1014.80 1014.83 1015.03 1015.01 1015.60 1015.68 1015.62 1015.45 1015.62 1015.85 1016.04 1016.35 1016.36 1016.22 1016.00
1012.68 1012.98 1013.32 1013.63 1013.74 1014.05 1013.91 1014.36 1014.69 1014.77 1014.72 1014.44 1014.60 1014.47 1014.52 1014.02 1014.12 1014.42 1014.80 1014.42 1014.26 1014.03 1014.75 1014.25 1014.44 1014.41 1014.36 1014.46 1014.18 1014.70 1014.67 1014.46 1014.97 1015.23 1015.34 1015.40 1015.40 1015.44 1015.74 1016.03 1016.30 1016.42 1016.39
1012.52 1012.72 1013.23 1013.41 1013.78 1013.79 1013.91 1014.05 1014.35 1014.50 1014.54 1014.38 1014.52 1014.92 1014.41 1013.92 1014.26 1014.75 1014.18 1014.34 1014.01 1013.76 1014.21 1013.90 1014.24 1014.28 1013.83 1013.88 1013.93 1013.86 1014.29 1014.40 1014.63 1014.78 1014.83 1015.23 1015.20 1015.12 1015.01 1015.22 1015.31 1015.73 1016.06
1012.49 1012.86 1013.15 1013.30 1013.75 1013.77 1013.84 1013.91 1014.34 1014.35 1014.51 1014.06 1014.01 1014.25 1013.81 1013.06 1013.39 1015.06 1012.96 1014.00 1014.17 1013.63 1013.99 1013.64 1013.83 1013.74 1013.71 1013.56 1013.39 1013.56 1013.17 1013.60 1014.11 1014.36 1014.70 1014.98 1015.14 1015.02 1015.26 1015.28 1015.41 1015.51 1015.94
1012.51 1013.00 1013.17 1013.40 1013.64 1013.71 1014.04 1013.98 1014.31 1014.34 1014.31 1014.03 1013.91 1013.78 1013.40 1011.78 1013.47 1015.80 1013.68 1013.39 1013.72 1013.06 1014.05 1013.67 1013.49 1013.58 1013.57 1013.15 1013.01 1013.07 1012.90 1013.48 1014.05 1014.28 1014.55 1014.71 1015.11 1015.24 1015.27 1015.52 1015.81 1016.00 1016.26
1012.46 1012.84 1013.29 1013.53 1013.50 1013.78 1013.94 1013.81 1013.85 1014.19 1014.38 1014.17 1014.13 1013.43 1012.76 1011.76 1014.44 1013.62 1012.24 1012.64 1013.10 1012.93 1012.95 1012.91 1013.29 1013.17 1013.56 1013.26 1012.98 1012.87 1012.78 1013.33 1013.66 1013.84 1014.10 1014.47 1014.55 1015.02 1015.50 1016.01 1016.21 1016.19 1016.54
1012.42 1012.93 1013.17 1013.44 1013.64 1013.81 1013.87 1013.90 1013.81 1013.76 1014.08 1013.77 1013.62 1013.42 1013.04 1012.36 1012.27 1012.60 1013.25 1013.35 1012.95 1013.10 1013.32 1013.53 1013.64 1013.72 1013.66 1013.28 1013.08 1012.80 1012.95 1012.92 1013.34 1013.72 1014.19 1014.67 1015.04 1015.62 1015.76 1015.96 1016.44 1016.87 1016.99
1012.21 1012.68 1012.96 1013.27 1013.58 1013.72 1013.89 1013.79 1013.53 1013.65 1013.84 1014.00 1013.49 1013.34 1013.20 1013.06 1013.05 1013.22 1013.67 1013.68 1013.56 1013.58 1013.88 1013.86 1013.75 1013.82 1013.87 1013.31 1012.86 1012.65 1012.87 1012.94 1013.49 1013.80 1014.71 1014.68 1015.25 1015.61 1016.00 1015.99 1016.60 1016.96 1017.15
1012.17 1012.52 1012.81 1013.26 1013.32 1013.50 1013.60 1013.70 1013.73 1013.39 1013.55 1013.37 1013.31 1013.37 1013.22 1013.20 1013.42 1013.35 1013.82 1014.04 1013.78 1013.93 1014.21 1013.96 1014.04 1013.90 1013.89 1013.55 1013.13 1012.96 1012.93 1013.00 1013.28 1013.99 1014.64 1014.83 1015.09 1015.49 1015.81 1016.04 1016.43 1016.87 1017.12
1012.31 1012.74 1012.84 1013.17 1013.17 1013.40 1013.55 1013.86 1013.77 1013.68 1013.37 1013.27 1013.42 1013.19 1013.12 1013.01 1013.41 1013.71 1014.09 1014.35 1014.02 1014.25 1014.25 1014.06 1013.90 1014.09 1014.11 1013.75 1013.67 1013.50 1013.31 1013.26 1013.68 1014.13 1014.54 1015.04 1015.24 1015.26 1015.80 1015.88 1016.34 1016.73 1016.99
1011.98 1012.43 1012.83 1013.10 1013.15 1013.19 1013.38 1013.78 1013.77 1013.63 1013.37 1013.39 1013.08 1012.89 1012.81 1012.88 1013.10 1013.46 1013.84 1013.93 1013.94 1014.13 1014.03 1014.06 1013.94 1014.37 1014.44 1014.05 1014.19 1014.57 1014.50 1014.17 1014.33 1014.70 1014.85 1015.06 1015.36 1015.66 1015.76 1015.88 1016.05 1016.53 1016.95
1011.60 1012.14 1012.60 1012.77 1013.04 1013.17 1013.29 1013.67 1013.96 1013.67 1013.49 1013.55 1013.46 1013.22 1012.76 1012.75 1012.72 1013.02 1013.11 1013.54 1013.82 1013.86 1013.92 1014.04 1014.09 1014.48 1014.83 1014.38 1014.18 1014.55 1015.04 1015.34 1014.99 1014.78 1014.73 1014.90 1015.30 1015.50 1015.89 1016.12 1016.49 1017.04 1017.40
1010.83 1011.37 1011.93 1012.44 1012.82 1012.96 1013.15 1013.57 1014.01 1014.08 1014.00 1013.67 1013.24 1013.00 1012.81 1012.77 1012.73 1012.67 1012.81 1012.94 1013.42 1013.54 1013.78 1013.98 1014.17 1014.38 1014.56 1014.85 1014.60 1014.51 1014.66 1014.76 1015.18 1015.32 1015.07 1015.77 1015.82 1016.07 1016.36 1016.52 1016.77 1017.24 1017.41
1010.00 1010.62 1011.25 1011.80 1012.31 1012.61 1012.86 1013.13 1013.55 1013.83 1013.87 1013.53 1013.62 1013.43 1013.10 1012.96 1012.66 1012.47 1012.67 1012.87 1013.23 1013.37 1013.63 1013.94 1014.15 1014.30 1014.39 1014.55 1014.76 1014.90 1014.95 1014.93 1015.28 1015.76 1016.01 1016.57 1016.97 1017.10 1017.05 1017.12 1017.19 1017.57 1017.81
1009.44 1010.16 1010.74 1011.33 1011.69 1012.00 1012.46 1012.82 1013.21 1013.49 1013.54 1013.76 1013.88 1013.90 1013.67 1013.18 1012.98 1012.62 1012.49 1012.86 1012.95 1013.30 1013.43 1013.56 1013.74 1013.96 1014.06 1014.32 1014.65 1014.82 1014.94 1015.24 1015.38 1015.68 1016.23 1016.42 1016.82 1017.65 1017.60 1017.52 1017.69 1017.76 1017.81
Wind_Speed
5 7 9 9 9 9 8 10 12 11 12 14 13 13 13 13 13 12 11 12 12 11 11 11 9 8 8 9 9 9 8 8 8 9 8 6 4 7 8 8 12 10 12
12 10 11 11 10 8 12 11 10 10 11 13 13 14 12 12 13 12 10 12 11 11 10 10 10 8 8 7 7 8 7 6 6 5 6 5 3 5 8 13 13 8 12
13 11 10 10 11 10 13 11 10 11 11 11 12 12 11 11 12 10 10 11 10 9 9 8 9 9 8 6 6 6 5 5 4 5 8 3 4 4 7 12 13 11 10
15 10 9 11 11 12 11 10 11 10 9 10 11 10 8 9 9 9 8 7 6 6 6 6 7 7 7 7 5 4 5 4 4 7 2 4 4 5 7 10 12 11 12
14 12 10 13 12 12 11 10 11 10 8 9 9 9 7 6 6 6 6 6 4 3 3 4 4 6 7 7 7 7 6 6 5 5 2 3 4 7 8 8 9 10 11
15 10 13 14 13 13 11 9 9 9 8 8 8 7 5 4 4 4 4 4 3 3 3 3 3 4 4 5 6 7 8 7 6 4 5 8 8 10 11 10 10 9 8
15 10 11 13 13 12 10 10 9 8 7 6 5 4 3 3 4 5 5 5 5 5 4 4 4 5 6 7 7 7 5 7 6 6 5 5 10 13 13 10 10 10 11
16 12 10 12 13 12 11 10 8 7 5 4 3 3 4 5 5 6 5 5 5 5 5 5 6 6 7 8 8 8 8 10 7 4 5 7 12 16 15 14 12 12 12
16 13 8 7 10 11 10 9 8 6 5 3 3 4 5 6 7 8 7 7 8 8 7 7 8 8 9 7 6 8 10 10 4 2 1 5 13 12 13 13 12 12 12
15 14 11 7 6 6 6 10 8 6 5 4 6 6 6 8 9 8 8 9 10 9 10 10 10 9 8 10 11 12 10 9 2 5 5 5 13 11 12 10 11 11 12
13 12 11 9 7 6 6 6 6 7 7 8 8 9 8 5 2 3 6 10 12 11 7 9 9 10 10 10 12 11 12 3 3 2 1 12 11 11 11 11 11 10 12
12 11 9 9 8 7 6 7 6 5 5 6 5 3 2 4 5 5 4 4 2 6 9 8 4 8 8 3 3 6 3 5 4 4 3 11 10 8 7 4 4 4 7
10 9 8 8 8 11 5 4 3 4 3 4 3 1 1 2 4 2 3 4 4 3 4 6 4 5 5 5 6 5 5 5 4 4 6 11 12 12 11 6 3 2 5
8 8 10 7 5 5 3 2 3 4 3 3 4 3 2 3 4 1 0 3 5 4 4 5 4 6 8 10 9 8 7 5 5 5 8 12 13 13 13 11 10 6 3
9 8 8 7 4 2 3 0 4 1 1 2 3 6 4 5 6 8 9 3 6 3 3 5 6 6 8 9 11 7 8 9 9 5 4 14 13 10 9 10 8 8 8
10 10 7 7 3 3 1 3 0 1 2 3 3 5 9 8 2 2 11 6 5 2 4 7 6 4 5 6 6 9 8 10 9 8 6 7 10 7 9 8 6 8 8
10 11 9 7 6 4 2 3 3 0 1 3 4 6 5 6 13 9 3 5 2 2 6 3 4 5 5 4 3 4 4 12 10 10 7 5 7 11 10 8 7 9 9
9 10 9 8 6 5 4 3 3 4 2 4 4 4 4 5 7 6 7 5 5 5 4 3 3 2 1 3 3 2 4 8 10 9 6 4 2 3 7 11 10 6 8
9 10 9 8 8 7 5 4 5 5 4 2 4 4 2 2 5 6 5 4 5 3 3 3 3 2 2 4 4 4 5 5 9 8 6 6 5 4 2 8 12 5 7
9 9 7 8 8 7 4 4 3 4 1 3 4 4 4 3 4 6 3 4 4 4 3 3 4 3 1 2 4 4 4 3 8 7 7 5 3 2 5 3 4 5 6
8 7 7 8 7 4 2 1 3 2 3 1 3 7 5 4 6 6 2 2 3 3 1 3 2 4 3 5 4 5 4 5 6 7 7 5 5 5 5 5 4 4 4
9 10 7 6 6 4 2 2 2 1 2 1 4 4 4 3 6 5 5 3 1 1 3 3 4 3 2 3 2 2 4 5 5 5 6 7 7 4 5 5 6 5 5
13 10 8 8 8 6 5 1 1 2 3 1 2 2 3 4 4 6 4 3 2 2 1 2 3 3 2 3 3 4 3 2 2 1 2 5 7 5 6 5 7 5 4
16 14 12 9 8 7 7 3 3 3 2 3 2 2 4 4 5 4 5 4 5 2 2 2 2 2 2 3 2 2 1 4 3 4 3 6 5 7 5 5 6 5 5
17 15 13 12 9 8 7 6 4 4 3 2 3 1 3 4 4 6 4 4 3 2 2 4 3 2 1 0 1 1 2 1 1 2 2 3 5 3 4 5 5 4 4
17 15 14 14 12 10 9 8 7 5 4 3 2 1 4 1 3 7 3 5 4 3 2 3 4 5 3 0 1 2 1 1 0 1 1 1 5 2 3 3 4 4 4
Wind_Direction
188 153 148 132 133 127 108 101 97 99 98 104 106 108 105 106 104 105 106 107 105 110 111 107 111 109 109 109 123 122 120 107 101 99 93 90 112 103 80 128 135 128 122
142 149 142 130 126 123 122 113 104 104 102 106 105 105 109 108 108 111 115 106 107 110 112 116 120 119 120 123 129 137 137 122 110 108 120 126 156 103 102 95 118 131 130
134 136 132 127 124 118 122 118 122 110 108 109 110 110 113 111 112 114 116 116 121 120 119 123 125 125 128 132 138 142 134 130 121 142 115 84 342 168 140 128 134 135 134
133 136 133 131 129 114 117 128 119 106 113 113 111 111 109 118 121 123 121 116 120 123 123 122 124 131 140 142 146 150 156 164 182 158 190 145 207 197 162 143 140 146 147
130 123 137 129 128 127 132 124 117 116 116 117 117 113 123 125 124 137 141 146 150 133 131 141 151 152 161 162 171 180 185 196 206 203 211 211 220 210 181 156 147 145 149
111 119 130 130 128 125 127 122 127 131 129 124 112 115 132 137 152 166 183 187 184 183 192 202 191 167 166 176 186 201 200 201 212 230 193 206 208 194 180 170 160 154 161
118 127 125 128 132 132 142 134 131 137 140 124 125 149 156 190 205 214 216 213 212 212 212 220 218 207 196 202 203 208 211 218 211 217 236 187 177 188 172 170 159 161 160
128 128 130 136 136 148 146 144 152 159 154 155 160 196 218 227 232 237 238 240 231 219 210 211 222 222 217 209 208 212 209 221 229 226 246 155 194 173 176 178 171 174 172
129 125 138 142 155 153 154 165 175 176 184 187 214 243 260 263 249 233 218 217 225 225 221 209 212 224 225 223 218 228 224 231 238 273 201 149 180 170 179 183 181 184 181
133 142 147 156 163 170 177 189 191 200 212 222 245 256 259 252 252 255 238 226 226 221 219 227 217 223 227 224 213 220 227 235 217 248 157 153 166 178 189 199 196 197 202
138 143 153 165 172 186 192 197 205 221 231 233 237 237 245 233 330 253 268 248 242 238 220 236 250 238 237 230 225 217 224 182 168 285 91 155 167 179 186 204 214 221 215
143 152 160 167 175 191 187 178 188 208 222 237 232 242 273 260 181 195 163 357 308 313 267 237 242 286 240 250 249 173 212 200 163 184 197 166 163 163 177 177 211 235 234
139 151 154 160 172 189 182 171 189 209 192 230 215 145 315 43 213 281 69 321 313 278 237 227 235 233 216 215 252 167 196 183 176 177 185 174 162 166 175 171 174 262 294
133 151 140 138 118 101 139 94 156 164 170 224 152 85 303 270 192 157 323 181 247 216 216 223 216 226 212 219 224 247 164 198 154 157 170 178 183 179 168 155 154 150 183
140 119 133 108 94 111 74 260 31 156 276 217 192 171 215 229 213 99 270 221 235 239 198 241 227 231 234 223 217 201 236 170 152 159 166 184 192 174 163 142 138 127 122
121 125 127 130 155 122 40 70 156 340 300 192 231 177 197 237 16 85 197 193 223 235 199 221 194 179 213 230 199 195 216 156 154 167 175 172 179 168 145 146 139 123 120
137 140 141 150 186 165 202 169 230 254 15 309 249 241 215 252 114 235 345 39 258 342 356 78 355 48 12 27 320 217 146 153 164 170 165 171 172 171 151 150 148 133 126
132 144 150 163 181 196 220 198 268 255 233 260 190 224 245 277 28 41 30 356 37 43 47 57 50 16 338 36 338 296 202 153 160 154 150 163 151 50 158 156 139 120 132
143 157 174 156 174 201 210 189 244 234 250 260 176 207 140 131 51 74 54 357 9 63 50 35 13 21 4 352 339 2 7 157 159 151 149 165 146 153 156 153 126 147 150
144 164 164 164 175 198 214 201 249 251 355 312 168 148 145 106 91 73 37 14 30 50 20 32 25 354 50 324 341 335 260 177 158 154 162 149 189 185 115 134 139 152 165
139 163 179 173 181 163 173 355 326 331 285 175 196 164 151 130 140 123 131 346 356 52 350 45 27 15 340 351 22 348 359 39 108 154 161 151 193 214 162 164 136 144 178
160 167 184 171 163 172 155 193 227 177 276 242 187 166 145 144 135 148 162 150 338 126 16 17 54 24 337 349 80 91 7 332 21 126 168 184 191 201 202 160 146 132 146
166 171 182 176 169 187 225 357 309 338 317 9 333 229 173 149 165 159 180 164 223 124 169 144 82 66 356 322 33 124 31 294 331 11 87 95 107 99 88 83 87 91 114
177 177 175 176 174 189 211 218 229 194 227 242 269 217 181 182 195 189 203 188 162 120 100 157 112 93 74 359 349 16 143 168 208 337 351 65 81 89 102 108 113 121 126
177 177 180 181 178 189 203 208 214 225 215 281 11 308 167 221 220 230 205 198 158 157 186 155 140 108 73 179 69 348 346 294 84 140 267 103 73 40 94 113 109 115 125
178 181 180 181 192 184 187 208 209 235 272 281 295 274 284 270 271 241 196 187 185 189 199 195 178 168 176 239 22 9 351 273 95 171 3 16 127 44 62 107 133 162 152